DW9848 Weather Reports


time (UTC)temp
C
wind
direction
speed
KPH
gust
KPH
rain 1hr
cm
rain 24hr
cm
rain mn
cm
humidity
%
barometer
mb
20260507110015 19 89 1.6 8.0 0.00 0.00 0.00 63 1001.6
20260507104517 18 213 3.2 8.0 0.00 0.00 0.00 65 1001.8
20260507103008 18 240 1.6 11.3 0.00 0.00 0.00 67 1002.0
20260507101507 18 81 0.0 6.4 0.00 0.00 0.00 67 1002.1
20260507100002 17 198 1.6 4.8 0.00 0.00 0.00 70 1002.2
20260507094537 17 334 0.0 3.2 0.00 0.00 0.00 69 1002.2
20260507093035 16 213 0.0 4.8 0.00 0.00 0.00 72 1002.1
20260507091537 16 212 0.0 3.2 0.00 0.00 0.00 71 1002.0
20260507090030 17 71 0.0 4.8 0.00 0.00 0.00 71 1002.0
20260507084544 16 91 0.0 6.4 0.00 0.00 0.00 72 1001.9
20260507083026 15 107 0.0 6.4 0.00 0.00 0.00 75 1001.9
20260507081521 15 12 1.6 6.4 0.00 0.00 0.00 76 1002.0
20260507080017 14 88 1.6 8.0 0.00 0.00 0.00 76 1001.9
20260507074513 13 51 0.0 8.0 0.00 0.00 0.00 76 1001.8
20260507073010 12 84 4.8 9.7 0.00 0.00 0.00 77 1001.8
20260507071515 12 83 1.6 9.7 0.00 0.00 0.00 77 1001.7
20260507070015 12 12 3.2 9.7 0.00 0.00 0.00 77 1001.6
20260507064505 12 15 1.6 6.4 0.00 0.00 0.00 77 1001.5
20260507063002 12 22 3.2 8.0 0.00 0.00 0.00 77 1001.4
20260507061600 11 10 3.2 8.0 0.00 0.00 0.00 77 1001.4
20260507054557 11 38 3.2 8.0 0.00 0.00 0.00 77 1001.1
20260507053057 11 45 1.6 4.8 0.00 0.00 0.00 77 1001.0
20260507051559 11 47 0.0 6.4 0.00 0.00 0.00 77 1000.7
20260507050105 11 29 1.6 6.4 0.00 0.00 0.00 77 1000.5
20260507044554 11 48 1.6 9.7 0.00 0.00 0.00 77 1000.4
20260507043047 11 61 3.2 8.0 0.00 0.00 0.00 77 1000.3
20260507041547 11 76 1.6 6.4 0.00 0.00 0.00 76 1000.2
20260507040048 11 42 1.6 6.4 0.00 0.00 0.00 77 1000.1
20260507034544 11 44 1.6 8.0 0.00 0.00 0.00 77 1000.0
20260507033046 11 70 1.6 6.4 0.00 0.00 0.00 76 1000.0
20260507031542 11 5 1.6 6.4 0.00 0.00 0.00 76 999.9
20260507030042 11 21 3.2 8.0 0.00 0.00 0.00 76 999.9
20260507024545 11 46 3.2 8.0 0.00 0.00 0.00 76 999.9
20260507023039 11 44 3.2 9.7 0.00 0.00 0.00 76 999.9
20260507021550 11 62 1.6 6.4 0.00 0.00 0.00 76 1000.0
20260507020037 11 55 0.0 6.4 0.00 0.00 0.00 76 1000.0
20260507014535 11 52 1.6 9.7 0.00 0.00 0.00 77 999.8
20260507013036 11 45 1.6 4.8 0.00 0.00 0.00 77 999.8
20260507011537 11 26 0.0 3.2 0.00 0.00 0.00 77 999.7
20260507010041 11 74 0.0 8.0 0.00 0.00 0.00 77 999.7
20260507004531 11 20 0.0 1.6 0.00 0.00 0.00 76 999.8
20260507003030 11 20 0.0 8.0 0.00 0.00 0.00 76 999.8
20260507001533 11 46 0.0 0.0 0.00 0.00 0.00 76 999.8
20260507000127 11 46 0.0 4.8 0.00 0.00 0.00 76 999.7
20260506234525 11 25 0.0 4.8 0.00 0.00 0.00 77 999.7
20260506233025 12 82 1.6 8.0 0.00 0.00 0.00 77 999.6
20260506231526 12 29 3.2 6.4 0.00 0.00 0.00 76 999.6
20260506230022 12 67 1.6 8.0 0.00 0.00 0.00 76 999.5
20260506224520 12 59 1.6 6.4 0.00 0.00 0.00 76 999.4
20260506223019 12 42 3.2 6.4 0.00 0.00 0.00 76 999.2
20260506221517 12 51 0.0 6.4 0.00 0.00 0.00 76 999.2
20260506220023 12 44 1.6 8.0 0.00 0.00 0.00 76 999.2
20260506214514 12 78 3.2 6.4 0.00 0.00 0.00 76 999.2
20260506213013 12 43 0.0 8.0 0.00 0.00 0.00 76 999.1
20260506211513 12 32 1.6 4.8 0.00 0.00 0.00 76 999.0
20260506210012 12 33 0.0 3.2 0.00 0.00 0.00 76 999.1
20260506204512 11 5 1.6 8.0 0.00 0.00 0.00 76 999.0
20260506203022 12 24 1.6 8.0 0.00 0.00 0.00 76 998.9
20260506201511 11 5 3.2 4.8 0.00 0.00 0.00 76 998.8
20260506200010 11 58 1.6 4.8 0.00 0.00 0.00 76 998.5
20260506194511 11 84 1.6 6.4 0.00 0.00 0.00 76 998.4
20260506193009 11 38 3.2 9.7 0.00 0.00 0.00 76 998.1
20260506191508 11 355 3.2 8.0 0.00 0.00 0.00 76 997.9
20260506190007 12 34 0.0 3.2 0.00 0.00 0.00 76 997.8
20260506184505 12 339 0.0 3.2 0.00 0.00 0.00 76 997.5
20260506183005 12 79 0.0 6.4 0.00 0.00 0.00 76 996.8
20260506181505 12 73 1.6 12.9 0.00 0.00 0.00 76 996.2
20260506180006 13 55 3.2 11.3 0.00 0.00 0.00 76 996.0
20260506174502 13 96 6.4 11.3 0.00 0.00 0.00 76 996.2
20260506173002 13 39 0.0 3.2 0.00 0.00 0.00 76 996.9
20260506171503 14 39 0.0 3.2 0.00 0.00 0.00 76 996.8
20260506170100 14 44 1.6 4.8 0.00 0.00 0.00 76 996.2
20260506164600 15 76 0.0 3.2 0.00 0.00 0.00 76 995.9
20260506163059 15 76 0.0 9.7 0.00 0.00 0.00 76 995.8
20260506161606 15 41 3.2 9.7 0.00 0.00 0.00 76 995.6
20260506160058 15 31 3.2 14.5 0.00 0.00 0.00 76 995.3
20260506154557 15 355 6.4 19.3 0.00 0.00 0.00 75 994.7
20260506153054 16 360 3.2 16.1 0.00 0.00 0.00 75 995.0
20260506151605 16 57 8.0 19.3 0.00 0.00 0.00 74 995.1
20260506150053 16 22 6.4 17.7 0.00 0.00 0.00 73 995.1
20260506144557 16 65 6.4 19.3 0.00 0.00 0.00 74 995.4
20260506143056 16 27 9.7 24.1 0.00 0.00 0.00 74 995.5
20260506141551 16 68 8.0 17.7 0.00 0.00 0.00 74 995.6
20260506134550 17 57 11.3 19.3 0.00 0.00 0.00 72 995.6
20260506133051 17 5 6.4 17.7 0.00 0.00 0.00 74 995.6
20260506131552 16 30 6.4 17.7 0.00 0.00 0.00 75 995.6
20260506130058 16 17 6.4 14.5 0.00 0.00 0.00 76 995.8
20260506124545 15 360 4.8 12.9 0.00 0.00 0.00 76 995.9
20260506123045 15 298 4.8 14.5 0.00 0.00 0.00 76 995.6
20260506121544 17 255 4.8 16.1 0.00 0.00 0.00 75 995.6
20260506120043 17 69 3.2 9.7 0.00 0.00 0.00 75 995.4
20260506114545 17 248 4.8 14.5 0.00 0.00 0.00 74 995.4
20260506113041 18 205 6.4 14.5 0.00 0.00 0.00 75 995.3
20260506111539 16 198 4.8 16.1 0.00 0.00 0.00 76 995.5